Location: ????????
(55.8351°N, 38.7040°E)
Time: 05:34:17
(UTC+00:00)

NOSS 7 (E) - Visible Passes

Search period start: 16 July 2024 00:00
Search period end: 26 July 2024 00:00
Orbit: 390 x 1675 km, 63.3° (Epoch: 15 July)

Date Brightness Start Highest point End Pass type
(mag) Time Alt. Az. Time Alt. Az. Time Alt. Az.
16 Jul 6.0 20:22:59 10° W 20:26:40 39° NNW 20:29:43 10° NE visible
16 Jul 7.1 22:13:37 10° NW 22:16:17 22° N 22:18:45 10° NE visible
17 Jul 5.9 00:02:57 10° NW 00:05:54 39° NNE 00:08:54 10° E visible
17 Jul 4.8 19:16:34 10° WSW 19:20:45 77° NW 19:24:03 10° NE visible
17 Jul 6.9 21:07:03 10° WNW 21:10:03 25° NNW 21:12:44 10° NE visible
17 Jul 6.8 22:57:06 10° NW 22:59:49 25° NNE 23:02:27 10° ENE visible
18 Jul 6.2 20:00:20 10° W 20:03:56 37° NNW 20:06:57 10° NE visible
18 Jul 7.1 21:50:56 10° NW 21:53:34 22° N 21:56:03 10° NE visible
18 Jul 5.6 23:40:12 10° NW 23:43:11 42° NNE 23:46:13 10° ESE visible
19 Jul 4.9 18:53:50 10° WSW 18:57:58 70° NW 19:01:15 10° NE visible
19 Jul 7.0 20:44:22 10° WNW 20:47:19 24° NNW 20:49:57 10° NE visible
19 Jul 6.7 22:34:20 10° NW 22:37:04 26° NNE 22:39:44 10° ENE visible
20 Jul 6.3 19:37:37 10° W 19:41:08 35° NNW 19:44:07 10° NE visible
20 Jul 7.1 21:28:10 10° NW 21:30:49 22° N 21:33:17 10° ENE visible
20 Jul 5.4 23:17:22 10° NW 23:20:21 46° NNE 23:23:26 10° ESE visible
21 Jul 7.0 20:21:37 10° WNW 20:24:30 24° N 20:27:07 10° NE visible
21 Jul 6.6 22:11:28 10° NW 22:14:15 27° NNE 22:16:58 10° ENE visible
22 Jul 4.1 00:00:21 10° NW 00:03:23 68° SW 00:06:40 10° SE visible
22 Jul 6.5 19:14:50 10° W 19:18:16 33° NNW 19:21:13 10° NE visible
22 Jul 7.1 21:05:20 10° NW 21:07:58 22° N 21:10:27 10° ENE visible
22 Jul 5.2 22:54:28 10° NW 22:57:29 50° NNE 23:00:36 10° ESE visible
23 Jul 7.1 19:58:47 10° WNW 20:01:37 23° N 20:04:12 10° NE visible
23 Jul 6.4 21:48:34 10° NW 21:51:22 28° NNE 21:54:07 10° E visible
23 Jul 4.2 23:37:25 10° WNW 23:40:27 60° SW 23:43:42 10° SE visible
24 Jul 6.6 18:51:58 10° W 18:55:21 31° NNW 18:58:15 10° NE visible
24 Jul 7.0 20:42:24 10° NW 20:45:03 22° N 20:47:33 10° ENE visible
24 Jul 4.9 22:31:30 10° NW 22:34:32 55° NNE 22:37:41 10° ESE visible
25 Jul 5.6 00:20:45 10° WNW 00:23:10 21° SW 00:25:47 10° S visible
25 Jul 7.0 19:35:53 10° WNW 19:38:41 23° N 19:41:14 10° NE visible
25 Jul 6.2 21:25:35 10° NW 21:28:24 30° NNE 21:31:12 10° E visible
25 Jul 4.3 23:14:26 10° WNW 23:17:26 53° SW 23:20:41 10° SE visible
